Simultaneous Nadir Overpasses (SNOs) Predictions

Prediction of SNOs between NOAA-20 and AQUA Satellite Orbit:

Table of predicted SNOs for the next 14.0 days since TLE Epoch: 4/26/2025
Index Date (NOAA-20) Time (NOAA-20) Lat,Lon (NOAA-20) SZA (NOAA-20 ) Date (AQUA) Time (AQUA) Lat,Lon (AQUA) SZA (AQUA ) Distance(km) Time Diff (sec)
1 04/26/2025 06:35:44 -81.30,-166.27 106.92 04/26/2025 06:35:57 -81.31,-166.30 106.92 0.73 13
2 04/26/2025 07:26:28 81.30, 1.34 73.03 04/26/2025 07:25:15 81.31, 1.47 73.06 2.36 73
3 04/28/2025 16:06:43 -81.30, 50.72 107.64 04/28/2025 16:07:15 -81.30, 50.74 107.67 0.84 32
4 04/28/2025 16:57:27 81.30,-141.72 72.32 04/28/2025 16:56:33 81.30,-141.52 72.32 3.27 54
5 05/01/2025 01:37:41 -81.30, -91.97 108.39 05/01/2025 01:38:31 -81.30, -92.02 108.42 1.02 50
6 05/01/2025 02:28:25 81.30, 75.56 71.57 05/01/2025 02:27:49 81.30, 75.69 71.58 2.27 36
7 05/03/2025 11:08:39 -81.30, 125.27 109.10 05/03/2025 11:09:45 -81.31, 125.43 109.16 2.69 66
8 05/03/2025 11:59:22 81.30, -66.84 70.81 05/03/2025 11:59:03 81.31, -66.89 70.83 1.12 19
9 05/05/2025 21:30:20 81.30, 150.32 70.14 05/05/2025 21:30:16 81.30, 150.34 70.14 0.49 4



Historial Predications of SNOs between NOAA-20 and AQUA
